{"data":{"norad_id":67070,"epoch":"2026-09-20T09:02:23.333280Z","epoch_age_seconds":119255,"freshness":"FRESH","line1":"1 67070U 25296B   26263.37665895  .00005929  00000+0  18769-3 0  9990","line2":"2 67070  41.3608 291.8379 0011465  97.7324 262.4805 15.33206224 42766","mean_motion":15.33206224,"eccentricity":0.0011465,"inclination_deg":41.3608,"raan_deg":291.8379,"arg_perigee_deg":97.7324,"mean_anomaly_deg":262.4805,"bstar":0.00018769,"rev_number":4276,"period_min":93.920829269996,"perigee_km":458.40660212605,"apogee_km":474.10078999211,"semimajor_km":6844.3906960591,"source":"CELESTRAK","updated_at":"2026-09-21T09:00:16.414090Z"}}